User: anonymous   Login
Location: Ostrava
(49.8330°N, 18.2830°E)
Time: 11:24:32
(UTC+01:00)
Language:

Iridium 7 - Orbit

View from above orbital plane
View from above orbital plane
View from above satellite
View from above satellite

Ground track
Ground track

The orbit data is extracted from the following two-line orbital elements,

1 24793U 97020B   18020.90610358 +.00000051 +00000-0 +11032-4 0  9993
2 24793 086.3955 227.9531 0002192 093.4632 266.6815 14.34242484084173
Epoch (UTC): 20 January 2018 21:44:47
Eccentricity: 0.0002192
inclination: 86.3955°
perigee height: 776 km
apogee height: 779 km
right ascension of ascending node: 227.9531°
argument of perigee: 93.4632°
revolutions per day: 14.34242484
mean anomaly at epoch: 266.6815°
orbit number at epoch: 8417

The dashed part of the orbit path shows where the satellite is in the earth's shadow,  

DLR